FW5284 Weather Reports


Display with metric or nautical units.
time (UTC)temp
F
wind
direction
speed
MPH
gust
MPH
rain 1hr
in
rain 24hr
in
rain mn
in
humidity
%
barometer
mb
20260904182510 77 263 1.0 4.0 0.00 0.32 0.00 67 1010.3
20260904182014 77 352 0.0 4.0 0.00 0.32 0.00 66 1010.2
20260904181518 78 307 1.0 3.0 0.00 0.32 0.00 65 1010.2
20260904181013 78 302 0.0 3.0 0.00 0.32 0.00 63 1010.1
20260904180513 79 297 0.0 3.0 0.00 0.32 0.00 62 1010.0
20260904180022 79 321 0.0 7.0 0.00 0.32 0.00 62 1010.0
20260904175516 79 1 1.0 7.0 0.00 0.32 0.00 62 1010.0
20260904175014 79 27 0.0 4.0 0.00 0.32 0.00 63 1010.0
20260904174528 79 37 0.0 4.0 0.00 0.32 0.00 61 1010.0
20260904174016 80 359 0.0 4.0 0.00 0.32 0.00 65 1010.1
20260904173520 80 86 0.0 5.0 0.00 0.32 0.00 63 1010.1
20260904173033 80 359 1.0 5.0 0.00 0.32 0.00 63 1010.1
20260904172506 80 302 0.0 5.0 0.00 0.32 0.00 63 1010.0
20260904172006 80 199 1.0 5.0 0.00 0.32 0.00 63 1010.1
20260904171535 80 28 1.0 7.0 0.00 0.32 0.00 63 1010.2
20260904171010 81 279 2.0 7.0 0.00 0.32 0.00 63 1010.1
20260904170508 81 289 2.0 6.0 0.00 0.32 0.00 65 1010.2
20260904170023 80 311 1.0 5.0 0.00 0.32 0.00 66 1010.2
20260904165516 80 140 2.0 5.0 0.00 0.32 0.00 65 1010.2
20260904165014 79 188 1.0 5.0 0.00 0.32 0.00 66 1010.2
20260904164528 79 139 0.0 5.0 0.00 0.32 0.00 68 1010.3
20260904164020 79 282 1.0 3.0 0.00 0.32 0.00 70 1010.3
20260904163516 79 184 0.0 6.0 0.00 0.32 0.00 68 1010.4
20260904163046 79 184 0.0 6.0 0.00 0.32 0.00 68 1010.6
20260904162515 80 159 1.0 4.0 0.00 0.32 0.00 65 1010.5
20260904162016 80 22 0.0 4.0 0.00 0.32 0.00 64 1010.6
20260904161530 80 293 2.0 4.0 0.00 0.32 0.00 67 1010.6
20260904161007 79 141 1.0 4.0 0.00 0.32 0.00 66 1010.6
20260904160510 79 93 1.0 4.0 0.00 0.32 0.00 69 1010.7
20260904160020 79 61 0.0 4.0 0.00 0.32 0.00 71 1010.7
20260904155512 79 285 1.0 3.0 0.00 0.32 0.00 69 1010.9
20260904155012 79 323 1.0 5.0 0.00 0.32 0.00 69 1011.0
20260904154526 79 44 1.0 5.0 0.00 0.32 0.00 68 1010.9
20260904154017 79 319 1.0 3.0 0.00 0.32 0.00 68 1010.9
20260904153515 79 46 0.0 2.0 0.00 0.32 0.00 71 1010.9
20260904153049 79 60 0.0 4.0 0.00 0.32 0.00 69 1010.9
20260904152512 78 345 1.0 4.0 0.00 0.32 0.00 70 1011.0
20260904152017 78 157 0.0 5.0 0.00 0.32 0.00 71 1011.0
20260904151538 78 155 1.0 5.0 0.00 0.32 0.00 73 1011.0
20260904151016 77 154 0.0 3.0 0.00 0.32 0.00 74 1010.8
20260904150520 77 181 0.0 3.0 0.00 0.32 0.00 74 1010.8
20260904150007 77 324 0.0 3.0 0.00 0.32 0.00 75 1010.9
20260904145504 77 73 1.0 4.0 0.00 0.32 0.00 75 1010.9
20260904145004 77 91 1.0 4.0 0.00 0.32 0.00 76 1011.0
20260904144507 76 111 0.0 5.0 0.00 0.32 0.00 77 1011.0
20260904144003 76 304 1.0 5.0 0.00 0.32 0.00 77 1011.0
20260904143503 75 275 1.0 3.0 0.00 0.32 0.00 77 1011.1
20260904143004 75 114 0.0 3.0 0.00 0.32 0.00 82 1011.1
20260904142505 75 36 0.0 3.0 0.00 0.32 0.00 82 1011.2
20260904142003 75 63 0.0 3.0 0.00 0.32 0.00 82 1011.2
20260904141512 74 328 1.0 3.0 0.00 0.32 0.00 83 1011.1
20260904141002 74 274 1.0 5.0 0.00 0.32 0.00 84 1011.2
20260904140514 73 279 2.0 5.0 0.00 0.32 0.00 84 1011.2
20260904140010 72 92 0.0 2.0 0.00 0.32 0.00 87 1011.2
20260904135504 72 89 0.0 2.0 0.00 0.32 0.00 89 1011.1
20260904135006 71 86 0.0 2.0 0.00 0.32 0.00 91 1011.2
20260904134508 71 86 0.0 2.0 0.00 0.32 0.00 93 1011.2
20260904134003 70 9 0.0 3.0 0.00 0.32 0.00 94 1011.2
20260904133511 70 123 0.0 3.0 0.00 0.32 0.00 95 1011.3
20260904133011 69 41 0.0 2.0 0.00 0.32 0.00 97 1011.2
20260904132509 69 53 0.0 2.0 0.00 0.32 0.00 98 1011.3
20260904132004 68 59 0.0 2.0 0.00 0.32 0.00 98 1011.3
20260904131506 68 107 0.0 2.0 0.00 0.32 0.00 98 1011.3
20260904131003 68 155 1.0 2.0 0.00 0.32 0.00 98 1011.2
20260904130511 68 314 0.0 2.0 0.00 0.32 0.00 98 1011.2
20260904130009 67 285 0.0 2.0 0.00 0.32 0.00 98 1011.2
20260904125509 67 285 0.0 2.0 0.00 0.32 0.00 98 1011.2
20260904125006 66 285 0.0 2.0 0.00 0.32 0.00 98 1011.2
20260904124511 66 284 0.0 2.0 0.00 0.32 0.00 97 1011.1
20260904124007 66 271 0.0 2.0 0.00 0.32 0.00 97 1011.1
20260904123510 66 277 0.0 2.0 0.00 0.32 0.00 98 1011.2
20260904123014 66 277 1.0 2.0 0.00 0.32 0.00 98 1011.1
20260904122510 66 276 0.0 3.0 0.00 0.32 0.00 98 1011.1
20260904122006 65 276 0.0 3.0 0.00 0.32 0.00 98 1011.2
20260904121512 65 274 0.0 2.0 0.00 0.32 0.00 98 1011.2
20260904121008 65 274 0.0 2.0 0.00 0.32 0.00 98 1011.2
20260904120504 65 276 0.0 2.0 0.00 0.32 0.00 97 1011.2
20260904120013 65 177 0.0 0.0 0.00 0.32 0.00 98 1011.2
20260904115506 64 177 0.0 0.0 0.00 0.32 0.00 97 1011.2
20260904115006 64 177 0.0 0.0 0.00 0.32 0.00 97 1011.3
20260904114512 64 179 0.0 0.0 0.00 0.32 0.00 97 1011.2
20260904114008 64 179 0.0 0.0 0.00 0.32 0.00 97 1011.2
20260904113512 64 179 0.0 1.0 0.00 0.32 0.00 97 1011.1
20260904113016 64 202 0.0 1.0 0.00 0.32 0.00 97 1011.0
20260904112507 64 174 0.0 0.0 0.00 0.32 0.00 97 1011.0
20260904112007 64 168 0.0 0.0 0.00 0.32 0.00 97 1010.9
20260904111519 64 124 0.0 0.0 0.00 0.32 0.00 97 1010.8
20260904111007 64 124 0.0 0.0 0.00 0.32 0.00 97 1010.8
20260904110511 64 124 0.0 0.0 0.00 0.32 0.00 97 1010.8
20260904110015 64 124 0.0 0.0 0.00 0.33 0.00 97 1010.8
20260904105508 64 124 0.0 1.0 0.00 0.33 0.00 97 1010.8
20260904105003 64 124 0.0 1.0 0.00 0.33 0.00 97 1010.8
20260904104510 64 115 0.0 1.0 0.00 0.33 0.00 97 1010.9
20260904104009 64 116 0.0 1.0 0.00 0.33 0.00 97 1010.8
20260904103518 64 184 0.0 1.0 0.00 0.33 0.00 97 1010.8
20260904103014 64 254 0.0 2.0 0.00 0.33 0.00 97 1010.8
20260904102508 64 253 0.0 2.0 0.00 0.34 0.00 97 1010.8
20260904102009 64 240 0.0 2.0 0.00 0.34 0.00 97 1010.6
20260904101521 64 248 0.0 2.0 0.00 0.35 0.00 97 1010.6
20260904101012 64 275 0.0 0.0 0.00 0.36 0.00 97 1010.6
20260904100511 64 275 0.0 0.0 0.00 0.36 0.00 97 1010.6
20260904100020 64 275 0.0 0.0 0.00 0.36 0.00 97 1010.6
20260904095507 64 275 0.0 0.0 0.00 0.36 0.00 97 1010.6
20260904095011 64 275 0.0 0.0 0.00 0.36 0.00 97 1010.5
20260904094518 64 275 0.0 1.0 0.00 0.36 0.00 97 1010.6
20260904094008 64 275 0.0 1.0 0.00 0.36 0.00 97 1010.7
20260904093511 65 275 0.0 1.0 0.00 0.36 0.00 97 1010.7
20260904093012 65 275 0.0 1.0 0.00 0.36 0.00 97 1010.8
20260904092507 65 274 0.0 2.0 0.00 0.36 0.00 97 1010.8
20260904092008 65 274 0.0 2.0 0.00 0.36 0.00 97 1010.8
20260904091521 65 275 0.0 1.0 0.00 0.36 0.00 97 1010.8
20260904091011 65 275 0.0 0.0 0.00 0.36 0.00 97 1010.8
20260904090513 65 275 0.0 0.0 0.00 0.36 0.00 97 1010.8
20260904090004 65 275 0.0 0.0 0.00 0.36 0.00 97 1010.8
20260904085504 65 275 0.0 2.0 0.00 0.36 0.00 97 1010.8
20260904085003 65 275 0.0 2.0 0.00 0.36 0.00 97 1010.8
20260904084506 65 274 0.0 2.0 0.00 0.36 0.00 97 1010.9
20260904084006 65 275 0.0 1.0 0.00 0.36 0.00 97 1010.8
20260904083503 65 275 0.0 2.0 0.00 0.36 0.00 97 1010.8
20260904083007 65 275 0.0 2.0 0.00 0.36 0.00 97 1010.7
20260904082507 65 165 0.0 1.0 0.00 0.37 0.00 97 1010.7
20260904082007 65 165 0.0 1.0 0.00 0.38 0.00 97 1010.7
20260904081517 65 165 0.0 1.0 0.00 0.42 0.00 97 1010.7
20260904081007 65 165 0.0 1.0 0.00 0.44 0.00 97 1010.7
20260904080512 65 165 0.0 0.0 0.00 0.45 0.00 97 1010.6
20260904080003 65 165 0.0 0.0 0.00 0.46 0.00 97 1010.7
20260904075502 65 165 0.0 0.0 0.00 0.48 0.00 97 1010.8
20260904075002 65 165 0.0 0.0 0.00 0.54 0.00 97 1010.8
20260904074503 65 165 0.0 0.0 0.00 0.61 0.00 97 1010.9
20260904074008 65 165 0.0 0.0 0.00 0.61 0.00 97 1010.9
20260904073504 65 165 0.0 0.0 0.00 0.61 0.00 97 1010.9
20260904073008 65 165 0.0 0.0 0.00 0.61 0.00 97 1011.0
20260904072503 65 165 0.0 0.0 0.00 0.61 0.00 97 1011.0
20260904072004 65 165 0.0 0.0 0.00 0.61 0.00 97 1011.0
20260904071512 65 165 0.0 0.0 0.00 0.61 0.00 97 1011.1
20260904071004 65 165 0.0 0.0 0.00 0.61 0.00 97 1011.1
20260904070515 65 165 0.0 0.0 0.00 0.61 0.00 97 1011.1
20260904070018 65 165 0.0 0.0 0.00 0.61 0.00 97 1011.2
20260904065511 65 165 0.0 0.0 0.00 0.61 0.00 97 1011.3
20260904065012 65 165 0.0 0.0 0.00 0.61 0.00 97 1011.2
20260904064524 65 165 0.0 2.0 0.00 0.61 0.00 97 1011.2
20260904064005 65 165 0.0 2.0 0.00 0.61 0.00 97 1011.2
20260904063504 65 165 0.0 2.0 0.00 0.61 0.00 97 1011.3
20260904063004 65 165 0.0 2.0 0.00 0.61 0.00 97 1011.3
20260904062509 65 165 0.0 2.0 0.00 0.61 0.00 97 1011.2
20260904062003 65 94 0.0 0.0 0.00 0.61 0.00 97 1011.3
20260904061509 65 94 0.0 0.0 0.00 0.61 0.00 97 1011.4
20260904061006 65 94 0.0 0.0 0.00 0.61 0.00 96 1011.5
20260904060506 65 94 0.0 0.0 0.00 0.61 0.00 97 1011.6
20260904060014 65 94 0.0 0.0 0.00 0.61 0.00 96 1011.7
20260904055506 65 94 0.0 0.0 0.00 0.61 0.00 96 1011.9
20260904055010 65 94 0.0 0.0 0.00 0.61 0.00 97 1012.0
20260904054530 65 94 0.0 0.0 0.00 0.61 0.00 96 1012.0
20260904054011 65 94 0.0 0.0 0.00 0.61 0.00 96 1012.0
20260904053513 65 94 0.0 0.0 0.00 0.61 0.00 96 1012.0
20260904053031 65 94 0.0 0.0 0.00 0.61 0.00 97 1012.1
20260904052504 65 94 0.0 0.0 0.00 0.61 0.00 97 1012.2
20260904052003 65 94 0.0 0.0 0.00 0.61 0.00 97 1012.2
20260904051505 65 94 0.0 0.0 0.00 0.61 0.00 96 1012.2
20260904051004 65 94 0.0 0.0 0.00 0.61 0.00 96 1012.2
20260904050503 65 94 0.0 0.0 0.00 0.61 0.00 96 1012.2
20260904050011 65 94 0.0 0.0 0.00 0.61 0.00 96 1012.1
20260904045507 65 94 0.0 0.0 0.00 0.61 0.00 96 1012.1
20260904045008 65 94 0.0 0.0 0.00 0.61 0.00 96 1012.2
20260904044515 65 94 0.0 0.0 0.00 0.61 0.00 96 1012.3
20260904044007 65 91 0.0 0.0 0.00 0.61 0.00 96 1012.3
20260904043515 65 91 0.0 0.0 0.00 0.61 0.00 96 1012.4
20260904043034 65 91 0.0 0.0 0.00 0.61 0.00 96 1012.3
20260904042512 65 91 0.0 0.0 0.00 0.61 0.00 96 1012.3
20260904042015 65 91 0.0 0.0 0.00 0.61 0.00 96 1012.4
20260904041529 65 91 0.0 0.0 0.00 0.61 0.00 96 1012.5
20260904041004 65 91 0.0 0.0 0.00 0.61 0.00 96 1012.5
20260904040503 65 91 0.0 0.0 0.00 0.61 0.00 96 1012.5
20260904040010 65 236 0.0 0.0 0.00 0.61 0.00 96 1012.5
20260904035504 65 236 0.0 0.0 0.00 0.61 0.61 96 1012.6
20260904035009 65 236 0.0 0.0 0.00 0.61 0.61 96 1012.6
20260904034512 65 236 0.0 0.0 0.00 0.61 0.61 96 1012.5
20260904034007 65 236 0.0 0.0 0.00 0.61 0.61 96 1012.6
20260904033510 65 236 0.0 0.0 0.00 0.61 0.61 96 1012.7
20260904033027 65 236 0.0 0.0 0.00 0.61 0.61 96 1012.6
20260904032511 65 236 0.0 0.0 0.00 0.61 0.61 95 1012.6
20260904032011 65 236 0.0 0.0 0.00 0.61 0.61 95 1012.8
20260904031526 65 236 0.0 0.0 0.00 0.61 0.61 95 1012.8
20260904031013 66 236 0.0 0.0 0.00 0.61 0.61 95 1012.9
20260904030512 66 236 0.0 0.0 0.00 0.61 0.61 95 1012.9
20260904030050 66 236 0.0 0.0 0.00 0.61 0.61 95 1012.8
20260904025514 66 236 0.0 0.0 0.00 0.61 0.61 95 1012.8
20260904025005 66 236 0.0 0.0 0.00 0.61 0.61 95 1012.7
20260904024512 66 236 0.0 0.0 0.00 0.61 0.61 95 1012.7
20260904024004 66 236 0.0 0.0 0.00 0.61 0.61 95 1012.5
20260904023508 66 236 0.0 0.0 0.00 0.61 0.61 95 1012.6
20260904023016 66 236 0.0 0.0 0.00 0.61 0.61 95 1012.5
20260904022507 66 236 0.0 0.0 0.00 0.61 0.61 95 1012.7
20260904022011 66 236 0.0 0.0 0.01 0.61 0.61 95 1012.8
20260904021529 66 236 0.0 0.0 0.01 0.61 0.61 95 1012.7
20260904021012 66 236 0.0 0.0 0.02 0.61 0.61 95 1012.7
20260904020516 66 236 0.0 0.0 0.15 0.61 0.61 95 1012.9
20260904020028 66 236 0.0 3.0 0.30 0.61 0.61 95 1013.0
20260904015517 66 236 0.0 3.0 0.32 0.61 0.61 95 1013.1
20260904015024 66 238 1.0 3.0 0.32 0.61 0.61 95 1013.1
20260904014537 66 287 0.0 2.0 0.32 0.61 0.61 95 1013.2
20260904014017 66 287 0.0 3.0 0.32 0.61 0.61 95 1013.2
20260904013505 66 287 0.0 3.0 0.32 0.61 0.61 95 1013.3
20260904013013 66 311 1.0 2.0 0.32 0.61 0.61 94 1013.3
20260904012505 66 68 0.0 2.0 0.32 0.61 0.61 94 1013.3
20260904012008 67 68 0.0 3.0 0.31 0.60 0.60 94 1013.3
20260904011518 66 68 0.0 3.0 0.31 0.60 0.60 94 1013.2
20260904011015 66 63 2.0 3.0 0.30 0.58 0.58 94 1013.1
20260904010511 66 278 1.0 4.0 0.17 0.46 0.46 94 1013.5
20260904010028 66 153 2.0 4.0 0.02 0.31 0.31 94 1013.3
20260904005512 66 359 1.0 4.0 0.00 0.29 0.29 93 1012.8
20260904005011 66 236 0.0 0.0 0.00 0.29 0.29 93 1012.5
20260904004530 66 236 0.0 0.0 0.00 0.29 0.29 93 1012.5
20260904004016 66 236 0.0 0.0 0.00 0.29 0.29 93 1012.5
20260904003517 66 236 0.0 0.0 0.00 0.29 0.29 92 1012.6
20260904003034 66 236 0.0 0.0 0.00 0.29 0.29 92 1012.6
20260904002521 67 236 0.0 0.0 0.00 0.29 0.29 92 1012.7
20260904002007 67 236 0.0 0.0 0.00 0.29 0.29 92 1012.8
20260904001515 67 236 0.0 0.0 0.00 0.29 0.29 92 1012.7
20260904001007 67 236 0.0 0.0 0.00 0.29 0.29 92 1012.7
20260904000507 68 236 0.0 0.0 0.00 0.29 0.29 92 1012.5
20260904000004 68 236 0.0 0.0 0.00 0.29 0.29 92 1012.4
20260903235503 68 236 0.0 0.0 0.00 0.29 0.29 92 1012.3
20260903235003 68 236 0.0 0.0 0.00 0.29 0.29 92 1012.2
20260903234503 68 238 0.0 0.0 0.00 0.29 0.29 91 1012.1
20260903234003 68 248 0.0 0.0 0.00 0.29 0.29 91 1012.2
20260903233507 68 233 0.0 0.0 0.00 0.29 0.29 91 1012.3
20260903233023 68 233 0.0 0.0 0.00 0.29 0.29 91 1012.3
20260903232503 68 233 0.0 0.0 0.00 0.29 0.29 91 1012.3
20260903232005 69 233 0.0 0.0 0.00 0.29 0.29 91 1012.2
20260903231514 69 233 0.0 0.0 0.00 0.29 0.29 91 1012.3
20260903231005 69 233 0.0 0.0 0.00 0.29 0.29 90 1012.3
20260903230505 69 233 0.0 0.0 0.00 0.29 0.29 90 1012.5
20260903230019 69 233 0.0 0.0 0.00 0.29 0.29 89 1012.5
20260903225511 69 233 0.0 0.0 0.00 0.29 0.29 89 1012.5
20260903225010 70 233 0.0 0.0 0.00 0.29 0.29 89 1012.4
20260903224504 70 233 0.0 0.0 0.00 0.29 0.29 88 1012.4
20260903224004 70 234 0.0 0.0 0.00 0.29 0.29 88 1012.4
20260903223504 70 234 0.0 0.0 0.00 0.29 0.29 87 1012.5
20260903223010 71 234 0.0 0.0 0.00 0.29 0.29 87 1012.7
20260903222506 71 235 0.0 2.0 0.00 0.29 0.29 86 1012.8
20260903222009 71 235 0.0 4.0 0.00 0.29 0.29 87 1012.8
20260903221508 71 221 0.0 4.0 0.00 0.29 0.29 87 1012.7
20260903221009 70 224 1.0 4.0 0.00 0.29 0.29 87 1012.8
20260903220507 70 166 0.0 2.0 0.00 0.29 0.29 87 1012.9
20260903220017 70 165 0.0 2.0 0.00 0.29 0.29 88 1012.8
20260903215508 70 113 0.0 0.0 0.00 0.29 0.29 87 1012.8
20260903215008 70 113 0.0 0.0 0.00 0.29 0.29 87 1012.8
20260903214522 70 113 0.0 0.0 0.00 0.29 0.29 87 1012.8
20260903214012 70 113 0.0 2.0 0.00 0.29 0.29 88 1012.8
20260903213512 70 113 0.0 2.0 0.00 0.29 0.29 88 1012.9
20260903213006 70 128 0.0 0.0 0.00 0.29 0.29 88 1012.8
20260903212503 70 128 0.0 0.0 0.00 0.29 0.29 88 1012.8
20260903212004 71 128 0.0 0.0 0.00 0.29 0.29 88 1012.8
20260903211508 71 128 0.0 0.0 0.00 0.29 0.29 87 1012.8
20260903211004 70 128 0.0 0.0 0.00 0.29 0.29 86 1012.7
20260903210507 71 127 0.0 0.0 0.00 0.29 0.29 86 1012.7
20260903210011 71 127 0.0 2.0 0.00 0.29 0.29 86 1012.8
20260903205508 71 128 0.0 3.0 0.00 0.29 0.29 85 1012.8
20260903205009 71 160 0.0 3.0 0.00 0.29 0.29 86 1012.9
20260903204518 71 163 0.0 2.0 0.00 0.29 0.29 86 1013.0
20260903204008 70 130 0.0 2.0 0.00 0.29 0.29 86 1013.0
20260903203507 70 188 0.0 2.0 0.00 0.29 0.29 86 1013.1
20260903203024 70 189 0.0 2.0 0.00 0.29 0.29 86 1013.1
20260903202510 70 217 0.0 0.0 0.00 0.29 0.29 86 1013.1
20260903202014 70 217 0.0 2.0 0.00 0.29 0.29 86 1013.2
20260903201506 70 217 0.0 2.0 0.00 0.29 0.29 85 1013.1
20260903201003 70 217 1.0 3.0 0.00 0.29 0.29 85 1013.2
20260903200504 70 259 0.0 3.0 0.00 0.29 0.29 85 1013.3
20260903200009 70 226 1.0 3.0 0.00 0.29 0.29 85 1013.3
20260903195503 70 219 0.0 2.0 0.00 0.29 0.29 86 1013.2
20260903195007 70 254 0.0 0.0 0.00 0.29 0.29 87 1013.3
20260903194516 70 136 0.0 0.0 0.00 0.29 0.29 87 1013.3
20260903194009 69 136 0.0 0.0 0.00 0.29 0.29 85 1013.3
20260903193509 69 114 0.0 0.0 0.00 0.29 0.29 85 1013.3
20260903193025 69 114 0.0 2.0 0.00 0.29 0.29 86 1013.3
20260903192509 69 137 0.0 2.0 0.00 0.29 0.29 86 1013.3
20260903192011 69 113 0.0 2.0 0.00 0.29 0.29 87 1013.5
20260903191532 69 131 0.0 3.0 0.00 0.29 0.29 87 1013.6
20260903191014 69 127 0.0 3.0 0.00 0.29 0.29 87 1013.7
20260903190514 69 108 0.0 2.0 0.00 0.29 0.29 86 1013.8
20260903190007 69 143 0.0 2.0 0.00 0.29 0.29 86 1013.7
20260903185502 69 143 0.0 2.0 0.00 0.29 0.29 87 1013.7
20260903185004 69 143 0.0 0.0 0.00 0.29 0.29 87 1013.8
20260903184514 68 143 0.0 1.0 0.00 0.29 0.29 88 1013.8
20260903184008 68 143 0.0 1.0 0.00 0.29 0.29 88 1013.8
20260903183514 68 143 0.0 2.0 0.00 0.29 0.29 89 1013.9
20260903183018 68 143 0.0 2.0 0.00 0.29 0.29 88 1013.8